Content
SEND FEEDBACK

Daily
Averages
Monthly
Summary
United States of America

CAMBRIDGE, MINNESOTA


Home > North America > United States > Minnesota
Elevation: 963 feet     Latitude: 45 34N     Longitude: 093 13W

WEATHER
 
SELECT A DAY
Number of Records: 464,048;   Date Range: 1/1/95 - 10/23/14
 
SHARE

PRINT THIS DATA

[ ← Previous Day ]
WEATHER ALMANAC - FEBRUARY 13, 2013
[ Next Day → ]
[ °C ]   °F
Weather ElementAverageHighLow
Temperature27.2 °F37.4 °F (3:36 pm)19.4 °F (6:36 am)
Dewpoint23.5 °F30.2 °F (3:36 pm)17.6 °F (1:56 am)
Humidity86.3 %100 % (7:35 pm)75 % (1:15 pm)
Barometer29.64 in29.75 in (12:35 am)29.56 in (9:36 pm)
Wind Speed2.8 mph8.1 mph (11:35 am)
Weather ElementAverage
Visibility7.6 mi
Wind DirectionESE (127 °)

Weather ElementTotal
Precipitation0.06 in
Heating Degree Days36.6 (Base 65)
Averaged from 69 records on February 13, 2013
WEATHER CONDITIONS BREAKOUT
WIND DIRECTION BREAKOUT
WEATHER BY HOUR - FEBRUARY 13, 2013
[ °C ]   °F
Local TimeTemperatureDewpointHumidityBarometerVisibilityWind DirectionWind SpeedGust SpeedPrecipitationEventsConditions
12:35 AM23.0 °F19.4 °F86 %29.75 in10.0 miWest (260°)3.5 mphOvercast
12:56 AM23.0 °F19.4 °F86 %29.74 in10.0 miWSW (250°)3.5 mphOvercast
1:16 AM23.0 °F19.4 °F86 %29.74 in10.0 miWSW (240°)3.5 mphOvercast
1:35 AM23.0 °F19.4 °F86 %29.73 in10.0 miWSW (240°)3.5 mphOvercast
1:56 AM21.2 °F17.6 °F86 %29.73 in10.0 miCalmOvercast
2:16 AM21.2 °F17.6 °F86 %29.73 in10.0 miCalmMostly Cloudy
2:35 AM21.2 °F17.6 °F86 %29.73 in10.0 miCalmMostly Cloudy
2:55 AM21.2 °F17.6 °F86 %29.73 in10.0 miCalmOvercast
3:15 AM21.2 °F17.6 °F86 %29.72 in10.0 miSW (220°)3.5 mphOvercast
3:36 AM21.2 °F17.6 °F86 %29.71 in10.0 miCalmOvercast
3:55 AM21.2 °F17.6 °F86 %29.71 in10.0 miCalmOvercast
4:15 AM21.2 °F17.6 °F86 %29.71 in10.0 miWSW (250°)3.5 mphOvercast
4:36 AM21.2 °F17.6 °F86 %29.71 in10.0 miSSW (210°)3.5 mphOvercast
4:55 AM21.2 °F17.6 °F86 %29.70 in10.0 miWSW (240°)3.5 mphOvercast
5:14 AM21.2 °F17.6 °F86 %29.70 in10.0 miWSW (240°)3.5 mphOvercast
5:35 AM21.2 °F17.6 °F86 %29.70 in10.0 miSSW (200°)3.5 mphOvercast
5:56 AM21.2 °F17.6 °F86 %29.70 in10.0 miWSW (240°)3.5 mphOvercast
6:16 AM21.2 °F17.6 °F86 %29.69 in10.0 miCalmOvercast
6:36 AM19.4 °F17.6 °F93 %29.68 in10.0 miCalmMostly Cloudy
6:55 AM19.4 °F17.6 °F93 %29.69 in10.0 miSSW (210°)3.5 mphOvercast
7:16 AM19.4 °F17.6 °F93 %29.68 in10.0 miCalmOvercast
7:35 AM19.4 °F17.6 °F93 %29.67 in7.0 miCalmOvercast
7:56 AM21.2 °F17.6 °F86 %29.68 in10.0 miCalmOvercast
8:16 AM21.2 °F17.6 °F86 %29.67 in10.0 miSouth (180°)3.5 mphOvercast
8:35 AM21.2 °F19.4 °F93 %29.67 in10.0 miCalmOvercast
8:56 AM21.2 °F19.4 °F93 %29.67 in10.0 miSSW (200°)3.5 mphOvercast
9:15 AM21.2 °F19.4 °F93 %29.66 in10.0 miSSE (160°)3.5 mphSnowLight Snow
9:36 AM23.0 °F19.4 °F86 %29.67 in10.0 miSouth (180°)3.5 mphOvercast
9:56 AM23.0 °F19.4 °F86 %29.66 in10.0 miSSE (160°)4.6 mphMostly Cloudy
10:16 AM24.8 °F19.4 °F80 %29.66 in10.0 miSSE (160°)3.5 mphScattered Clouds
10:35 AM24.8 °F21.2 °F86 %29.66 in10.0 miSouth (180°)4.6 mphMostly Cloudy
10:56 AM26.6 °F21.2 °F80 %29.65 in10.0 miSSE (160°)5.8 mphOvercast
11:15 AM26.6 °F21.2 °F80 %29.65 in10.0 miSSE (160°)5.8 mphScattered Clouds
11:35 AM28.4 °F23.0 °F80 %29.65 in10.0 miSouth (170°)8.1 mphClear
11:56 AM28.4 °F24.8 °F86 %29.65 in10.0 miSSE (160°)8.1 mphClear
12:16 PM30.2 °F24.8 °F80 %29.64 in10.0 miSouth (170°)6.9 mphClear
12:35 PM30.2 °F24.8 °F80 %29.63 in10.0 miSouth (180°)5.8 mphClear
12:55 PM30.2 °F26.6 °F86 %29.62 in10.0 miSSE (160°)5.8 mphClear
1:15 PM33.8 °F26.6 °F75 %29.62 in10.0 miSSE (160°)5.8 mphClear
1:35 PM33.8 °F26.6 °F75 %29.61 in10.0 miSouth (190°)3.5 mphClear
1:56 PM35.6 °F28.4 °F75 %29.60 in10.0 miSSW (200°)4.6 mphClear
1:57 PM35.6 °F28.4 °F75 %29.60 in10.0 miSouth (180°)4.6 mphClear
3:36 PM37.4 °F30.2 °F75 %29.59 in10.0 miSW (220°)4.6 mph0.01 inScattered Clouds
3:37 PM37.4 °F30.2 °F75 %29.59 in10.0 miSW (220°)3.5 mph0.01 inScattered Clouds
3:55 PM37.4 °F30.2 °F75 %29.59 in10.0 miSW (230°)4.6 mph0.01 inClear
4:16 PM35.6 °F30.2 °F81 %29.59 in10.0 miSouth (180°)6.9 mphClear
4:35 PM35.6 °F28.4 °F75 %29.59 in10.0 miSouth (180°)5.8 mphScattered Clouds
4:56 PM35.6 °F28.4 °F75 %29.59 in10.0 miSouth (170°)5.8 mphMostly Cloudy
5:16 PM35.6 °F28.4 °F75 %29.59 in10.0 miSouth (180°)4.6 mph0.01 inOvercast
5:36 PM33.8 °F28.4 °F81 %29.59 in10.0 miSouth (190°)3.5 mph0.01 inOvercast
5:55 PM33.8 °F28.4 °F81 %29.59 in3.0 miSSW (200°)5.8 mph0.01 inSnowLight Snow
6:16 PM32.0 °F28.4 °F87 %29.59 in1.5 miCalmSnowLight Snow
6:35 PM30.2 °F28.4 °F93 %29.59 in1.2 miCalmSnowLight Snow
6:55 PM32.0 °F30.2 °F93 %29.58 in1.5 miCalmSnowLight Snow
7:16 PM32.0 °F30.2 °F93 %29.58 in1.2 miCalmSnowLight Snow
7:35 PM30.2 °F30.2 °F100 %29.58 in1.5 miCalmSnowLight Snow
7:55 PM30.2 °F28.4 °F93 %29.58 in1.2 miCalmSnowLight Snow
8:16 PM30.2 °F30.2 °F100 %29.57 in1.2 miCalmSnowLight Snow
8:36 PM30.2 °F28.4 °F93 %29.57 in1.2 miCalmSnowLight Snow
8:55 PM30.2 °F28.4 °F93 %29.57 in1.2 miCalmSnowLight Snow
9:15 PM30.2 °F28.4 °F93 %29.57 in1.2 miCalmSnowLight Snow
9:36 PM30.2 °F28.4 °F93 %29.56 in1.5 miCalmSnowLight Snow
9:55 PM30.2 °F28.4 °F93 %29.56 in1.8 miNorth (10°)3.5 mphSnowLight Snow
10:16 PM30.2 °F28.4 °F93 %29.56 in1.8 miCalmSnowLight Snow
10:35 PM30.2 °F28.4 °F93 %29.56 in1.2 miCalmSnowLight Snow
10:56 PM30.2 °F28.4 °F93 %29.57 in1.8 miNorth (360°)3.5 mphSnowLight Snow
11:16 PM30.2 °F28.4 °F93 %29.57 in2.0 miCalmSnowLight Snow
11:35 PM30.2 °F28.4 °F93 %29.58 in1.2 miNorth (350°)3.5 mphSnowLight Snow
11:55 PM30.2 °F28.4 °F93 %29.59 in1.5 miNorth (360°)5.8 mphSnowLight Snow
Hourly data recorded from KCBG, located miles away from Cambridge, Minnesota







STORIES FROM OUR PARTNERS